sat.trackr.live / text

‹ back to catalog

STARLINK-4109

NORAD 53268 · 2022-086AC

PAYLOAD ACTIVE UNKNOWN

§ Identity

Operator
Country
US
Launch date
2022-07-24
Launch site
AFETR
Launch vehicle
Mass (kg)
RCS (m²)

Purposes: comms

External: N2YO · Heavens-Above · Gunter

§ Orbital elements

Epoch: 2026-05-25T03:52:51.743136Z

Period
95.44 min
Inclination
53.2126°
Eccentricity
0.0000827
Mean motion
15.08833771 rev/d
Perigee alt
539.2 km
Apogee alt
540.3 km
Semi-major
6,917.9 km
B*
5.8786e-5
RAAN
210.8263°
Arg perigee
74.2377°
Mean anomaly
285.8706°
Rev number
21,261

§ Raw data

STARLINK-41091 53268U 22086AC  26145.16170999  .00000648  00000+0  58786-4 0  99972 53268  53.2126 210.8263 0000827  74.2377 285.8706 15.08833771212615

JSON: /api/v1/satellites/53268 · /tle

For live sub-satellite position, see the globe view (requires WebGL).

§ Visibility from observer

Set your observer location to see the next 7 days of passes ≥ 10°. The values pass through the URL so the page stays shareable.

No JS? Fill the form by hand. The geolocation button needs JavaScript.